This is the latest recevied weather packets stored in our database for station/object WC4PEM-8. If no packets are shown the sender has not sent any weather packets the latest 10 day(s).
| Time | Temp. | Humidity | Pressure | Rain* | Wind** | Luminosity | Snow |
|---|---|---|---|---|---|---|---|
| 1777840862 | 26.11° C | 57% | 1015.3 hPa | 0 mm | - | - | - |
| 1777840663 | 25.56° C | 58% | 1015.4 hPa | 0 mm | - | - | - |
| 1777840562 | 26.11° C | 57% | 1015.3 hPa | 0 mm | - | - | - |
| 1777840262 | 25.56° C | 58% | 1015.4 hPa | 0 mm | - | - | - |
| 1777839962 | 25.56° C | 59% | 1015.4 hPa | 0 mm | - | - | - |
| 1777839662 | 25.56° C | 59% | 1015.4 hPa | 0 mm | - | - | - |
| 1777839362 | 25.56° C | 59% | 1015.5 hPa | 0 mm | - | - | - |
| 1777839062 | 25.56° C | 60% | 1015.6 hPa | 0 mm | - | - | - |
| 1777838762 | 25.56° C | 60% | 1015.7 hPa | 0 mm | - | - | - |
| 1777838462 | 25.56° C | 60% | 1015.7 hPa | 0 mm | - | - | - |
| 1777838162 | 25° C | 62% | 1015.8 hPa | 0 mm | - | - | - |
| 1777837862 | 25° C | 61% | 1015.7 hPa | 0 mm | - | - | - |
| 1777837562 | 25° C | 63% | 1015.9 hPa | 0 mm | - | - | - |
| 1777837262 | 24.44° C | 62% | 1015.9 hPa | 0 mm | - | - | - |
| 1777836962 | 24.44° C | 62% | 1016.1 hPa | 0 mm | - | - | - |
| 1777836662 | 25° C | 62% | 1016.2 hPa | 0 mm | - | - | - |
| 1777836412 | 25° C | 63% | 1016.2 hPa | 0 mm | - | - | - |
| 1777836362 | 25° C | 63% | 1016.2 hPa | 0 mm | - | - | - |
| 1777836062 | 25° C | 63% | 1016.4 hPa | 0 mm | - | - | - |
| 1777835942 | 24.44° C | 66% | 1016.7 hPa | 0 mm | - | - | - |
| 1777835762 | 25° C | 63% | 1016.4 hPa | 0 mm | - | - | - |
| 1777835462 | 25° C | 62% | 1016.7 hPa | 0 mm | - | - | - |
| 1777835162 | 24.44° C | 66% | 1016.7 hPa | 0 mm | - | - | - |
| 1777834862 | 24.44° C | 64% | 1016.8 hPa | 0 mm | - | - | - |
| 1777834562 | 24.44° C | 63% | 1017 hPa | 0 mm | - | - | - |
* Rain latest hour (hover to see other rain measurements)
** Current wind speed in m/s (hover to see current wind gust speed)